Carbondale, IL

8:33 PM CDT on April 27, 2017 (GMT -0500)
Southern Illinois

Weather History for KMDH - June, 2014

Change the Weather History Date:

Thursday, June 5, 2014

  Actual Average Record
Temperature  
Mean Temperature 70 °F -  
Max Temperature 73 °F 81 °F 99 °F (1911)
Min Temperature 66 °F 60 °F 45 °F (1926)
Cooling Degree Days 4    
Growing Degree Days 20 (Base 50)    
Moisture  
Dew Point 64 °F    
Average Humidity 82    
Maximum Humidity 96    
Minimum Humidity 71    
Precipitation  
Precipitation 0.00 in - - ()
Sea Level Pressure  
Sea Level Pressure 29.88 in    
Wind  
Wind Speed 6 mph (NE)    
Max Wind Speed 10 mph    
Max Gust Speed -    
Visibility 8 miles    
Events      
Averages and records for this station are not official NWS values.
T = Trace of Precipitation, MM = Missing Value Source: NWS Daily Summary

Daily Weather History Graph

Daily Weather History Graph

Search for Another Location

Airport or City:

Trip Planner

Search our weather history database for the weather conditions in past years. The results will help you decide how hot, cold, wet, or windy it might be!

Date:

Astronomy

Jun. 05, 2014 Rise Set
Actual Time 5:35 AM CDT 8:15 PM CDT
Civil Twilight 5:04 AM CDT 8:46 PM CDT
Nautical Twilight 4:26 AM CDT 9:25 PM CDT
Astronomical Twilight 3:42 AM CDT 10:08 PM CDT
Moon 12:45 PM CDT (6/5) 12:49 AM CDT (6/5)
Length of Visible Light 15h 42m
Length of Day
14h 40m
Waxing Crescent, 49% of the Moon is Illuminated
Jun 5
Waxing Crescent
Jun 5
First Quarter
Jun 12
Full
Jun 19
Last Quarter
Jun 27
New

Hourly Weather History & Observations

Time (CDT) Temp. Dew Point Humidity Pressure Visibility Wind Dir Wind Speed Gust Speed Precip Events Conditions
12:52 AM 71.1 °F 70.0 °F 96% 29.82 in 9.0 mi North 3.5 mph - N/A   Overcast
1:23 AM 71.1 °F 69.1 °F 93% 29.83 in 10.0 mi North 3.5 mph - N/A   Mostly Cloudy
1:52 AM 71.1 °F 69.1 °F 93% 29.81 in 10.0 mi North 5.8 mph - N/A   Overcast
2:11 AM 70.0 °F 68.0 °F 93% 29.82 in 10.0 mi North 6.9 mph - N/A   Mostly Cloudy
2:52 AM 70.0 °F 68.0 °F 93% 29.80 in 10.0 mi NNE 9.2 mph - N/A   Overcast
3:50 AM 69.8 °F 66.2 °F 88% 29.83 in 10.0 mi NNE 6.9 mph - N/A   Overcast
3:52 AM 69.1 °F 66.9 °F 93% 29.82 in 10.0 mi NNE 6.9 mph - N/A   Overcast
4:25 AM 68.0 °F 64.9 °F 90% 29.83 in 10.0 mi ENE 8.1 mph - N/A   Overcast
4:52 AM 66.9 °F 64.0 °F 90% 29.84 in 10.0 mi ENE 5.8 mph - N/A   Overcast
5:13 AM 66.9 °F 64.0 °F 90% 29.86 in 8.0 mi NE 9.2 mph - N/A   Overcast
5:32 AM 66.9 °F 63.0 °F 87% 29.87 in 8.0 mi NE 8.1 mph - N/A   Overcast
5:52 AM 66.0 °F 62.1 °F 87% 29.86 in 10.0 mi NE 8.1 mph - N/A   Overcast
6:41 AM 66.0 °F 63.0 °F 90% 29.86 in 8.0 mi NE 8.1 mph - N/A   Overcast
6:52 AM 66.0 °F 63.0 °F 90% 29.85 in 8.0 mi NE 10.4 mph - N/A   Overcast
7:52 AM 66.0 °F 62.1 °F 87% 29.88 in 9.0 mi NE 9.2 mph - N/A   Overcast
8:52 AM 66.0 °F 61.0 °F 84% 29.88 in 10.0 mi ENE 8.1 mph - N/A   Overcast
10:52 AM 69.1 °F 62.1 °F 78% 29.95 in 10.0 mi NE 5.8 mph - N/A   Overcast
11:05 AM 70.0 °F 62.1 °F 76% 29.96 in 10.0 mi NE 8.1 mph - N/A   Overcast
11:52 AM 71.1 °F 62.1 °F 73% 29.94 in 10.0 mi ENE 6.9 mph - N/A   Overcast
12:52 PM 72.0 °F 62.1 °F 71% 29.93 in 10.0 mi NNW 5.8 mph - N/A   Mostly Cloudy
1:14 PM 72.0 °F 63.0 °F 73% 29.93 in 1.8 mi North 8.1 mph - N/A   Haze
1:28 PM 72.0 °F 62.1 °F 71% 29.93 in 10.0 mi North 9.2 mph - N/A   Overcast
1:52 PM 72.0 °F 62.1 °F 71% 29.92 in 10.0 mi North 4.6 mph - N/A   Overcast
2:52 PM 72.0 °F 62.1 °F 71% 29.83 in 10.0 mi East 9.2 mph - N/A   Mostly Cloudy
3:52 PM 72.0 °F 62.1 °F 71% 29.84 in 10.0 mi East 8.1 mph - N/A   Overcast
4:52 PM 73.9 °F 64.0 °F 71% 29.84 in 10.0 mi ENE 8.1 mph - N/A   Overcast
5:52 PM 73.0 °F 63.0 °F 71% 29.86 in 9.0 mi East 5.8 mph - N/A   Overcast
6:52 PM 72.0 °F 63.0 °F 73% 29.90 in 8.0 mi East 4.6 mph - N/A   Overcast
7:52 PM 71.1 °F 64.0 °F 78% 29.90 in 6.0 mi NNE 4.6 mph - N/A   Haze
8:03 PM 71.1 °F 64.0 °F 78% 29.91 in 5.0 mi North 3.5 mph - N/A   Haze
8:52 PM 71.1 °F 64.0 °F 78% 29.90 in 6.0 mi Calm Calm - N/A   Haze
9:52 PM 70.0 °F 64.9 °F 84% 29.92 in 5.0 mi Calm Calm - N/A   Haze
10:52 PM 70.0 °F 64.0 °F 81% 29.93 in 5.0 mi ENE 3.5 mph - N/A   Haze
11:52 PM 68.0 °F 64.9 °F 90% 29.92 in 4.0 mi ESE 3.5 mph - N/A   Scattered Clouds